Location: Willingham
(52.3167°N, 0.0667°E)
Time: 00:16:16
(UTC+00:00)

Cosmos 1867 - Pass Details

Date: 19 May 2025
Orbit: 775 x 798 km, 65.0° (Epoch: 18 June)

Event Time Altitude Azimuth Distance (km) Brightness Sun altitude
Rises 21:29:17 0° 316° (NW) 3,314 8.8 -11.0°
Reaches altitude 10° 21:31:45 10° 312° (NW) 2,380 7.5 -11.2°
Maximum altitude 21:37:04 54° 236° (SW) 966 4.0 -11.6°
Enters shadow 21:41:23 15° 163° (SSE) 2,007 5.1 -12.0°
